STARLINK-4608 (53621 NORAD) Tracking and Keplerian Element Data

This shows tracking and keplerian element data for the satellite.

Feedback or suggestion? Click here.




ElementValue
Catalog53621
NameSTARLINK-4608
Epoch Orbit130
Epoch Day324.91667824
Epoch Year2022
RAAN242.5028
Inclination53.2146
Eccentricity0.0001803
Argument of Perigee50.5218
Mean Anonmoly28.9931
Mean Motion15.08850013
Decay Rate-0.00020315
L11 53621U 22104AK 22324.91667824 -.00020315 00000+0 -12615-2 0 9991
L22 53621 53.2146 242.5028 0001803 50.5218 28.9931 15.08850013 1303



Live tracking and technical data element details for STARLINK-4608 (NORAD 53621). STARLINK-4608 can be tracked NOW for your location showing map with azimuth and elevation plus other details from your city location.







IsCatalogInMostPopularTable: catalog: 53621, numindb: 3
Update: records affected: 1



GetName: 53621 STARLINK-4608

Hit Count: updated at: Thu, 08 Dec 2022 10:10:52 GMT